Devils Lake, ND

6:11 AM CDT on October 01, 2016 (GMT -0500)
Devils Lake Municipal

Weather History for KDVL - February, 2014

Change the Weather History Date:

Thursday, February 6, 2014

  Actual Average Record
Temperature  
Mean Temperature 0 °F -  
Max Temperature 6 °F 18 °F 45 °F (1990)
Min Temperature -7 °F 1 °F -26 °F (1967)
Degree Days  
Heating Degree Days 66    
Moisture  
Dew Point -11 °F    
Average Humidity 60    
Maximum Humidity 66    
Minimum Humidity 52    
Precipitation  
Precipitation 0.00 in - - ()
Sea Level Pressure  
Sea Level Pressure 30.14 in    
Wind  
Wind Speed 18 mph (West)    
Max Wind Speed 29 mph    
Max Gust Speed 36 mph    
Visibility 8 miles    
Events      
Averages and records for this station are not official NWS values.
T = Trace of Precipitation, MM = Missing Value Source: NWS Daily Summary

Daily Weather History Graph

Daily Weather History Graph

Search for Another Location

Airport or City:

Trip Planner

Search our weather history database for the weather conditions in past years. The results will help you decide how hot, cold, wet, or windy it might be!

Date:

Astronomy

Feb. 06, 2014 Rise Set
Actual Time 7:56 AM CST 5:43 PM CST
Civil Twilight 7:23 AM CST 6:16 PM CST
Nautical Twilight 6:46 AM CST 6:53 PM CST
Astronomical Twilight 6:10 AM CST 7:29 PM CST
Moon 11:14 AM CST (2/6) 1:13 AM CST (2/6)
Length of Visible Light 10h 52m
Length of Day
9h 47m
Waxing Crescent, 49% of the Moon is Illuminated
Feb 6
Waxing Crescent
Feb 6
First Quarter
Feb 14
Full
Feb 22
Last Quarter
Mar 1
New

Hourly Weather History & Observations

Time (CST) Temp. Windchill Dew Point Humidity Pressure Visibility Wind Dir Wind Speed Gust Speed Precip Events Conditions
12:15 AM -7.6 °F -29.1 °F -16.6 °F 65% 30.37 in 10.0 mi West 15.0 mph - N/A   Overcast
12:35 AM -7.6 °F -27.5 °F -16.6 °F 65% 30.36 in 10.0 mi West 12.7 mph - N/A   Mostly Cloudy
12:55 AM -7.6 °F -29.1 °F -16.6 °F 65% 30.35 in 10.0 mi West 15.0 mph - N/A   Clear
1:15 AM -5.8 °F -26.8 °F -18.4 °F 55% 30.33 in 10.0 mi WNW 15.0 mph - N/A   Clear
1:35 AM -7.6 °F -29.1 °F -16.6 °F 65% 30.32 in 10.0 mi WNW 15.0 mph - N/A   Clear
1:55 AM -7.6 °F -29.1 °F -18.4 °F 59% 30.32 in 10.0 mi West 15.0 mph - N/A   Clear
2:15 AM -7.6 °F -29.1 °F -18.4 °F 59% 30.31 in 10.0 mi West 15.0 mph - N/A   Clear
2:35 AM -7.6 °F -28.3 °F -18.4 °F 59% 30.30 in 10.0 mi West 13.8 mph - N/A   Clear
2:55 AM -7.6 °F -27.5 °F -18.4 °F 59% 30.29 in 10.0 mi West 12.7 mph - N/A   Clear
3:15 AM -7.6 °F -29.1 °F -18.4 °F 59% 30.28 in 10.0 mi West 15.0 mph - N/A   Clear
3:35 AM -7.6 °F -29.8 °F -16.6 °F 65% 30.27 in 10.0 mi West 16.1 mph - N/A   Clear
3:55 AM -7.6 °F -28.3 °F -16.6 °F 65% 30.27 in 10.0 mi WNW 13.8 mph - N/A   Clear
4:15 AM -7.6 °F -28.3 °F -16.6 °F 65% 30.26 in 10.0 mi WNW 13.8 mph - N/A   Clear
4:35 AM -7.6 °F -29.1 °F -16.6 °F 65% 30.25 in 10.0 mi WNW 15.0 mph - N/A   Clear
4:55 AM -7.6 °F -28.3 °F -18.4 °F 59% 30.25 in 10.0 mi WNW 13.8 mph - N/A   Partly Cloudy
5:15 AM -5.8 °F -26.0 °F -16.6 °F 60% 30.25 in 10.0 mi WNW 13.8 mph - N/A   Mostly Cloudy
5:35 AM -4.0 °F -25.8 °F -14.8 °F 60% 30.24 in 10.0 mi WNW 17.3 mph - N/A   Overcast
5:55 AM -2.2 °F -23.5 °F -13.0 °F 60% 30.24 in 10.0 mi WNW 17.3 mph - N/A   Overcast
6:15 AM -2.2 °F -24.1 °F -11.2 °F 66% 30.24 in 10.0 mi WNW 18.4 mph 24.2 mph N/A   Overcast
6:35 AM -0.4 °F -21.7 °F -11.2 °F 60% 30.23 in 10.0 mi WNW 18.4 mph - N/A   Overcast
6:55 AM -0.4 °F -21.2 °F -11.2 °F 60% 30.22 in 10.0 mi WNW 17.3 mph - N/A   Overcast
7:15 AM -0.4 °F -22.3 °F -9.4 °F 66% 30.22 in 10.0 mi WNW 19.6 mph - N/A   Overcast
7:35 AM -0.4 °F -22.3 °F -9.4 °F 66% 30.21 in 10.0 mi WNW 19.6 mph - N/A   Overcast
7:55 AM -0.4 °F -22.3 °F -9.4 °F 66% 30.21 in 5.0 mi WNW 19.6 mph - N/A   Overcast
8:15 AM 1.4 °F -19.4 °F -9.4 °F 61% 30.20 in 2.5 mi WNW 18.4 mph 24.2 mph N/A   Overcast
8:35 AM 1.4 °F -19.4 °F -9.4 °F 61% 30.20 in 1.5 mi WNW 18.4 mph - N/A   Overcast
8:55 AM 1.4 °F -19.9 °F -9.4 °F 61% 30.20 in 1.2 mi WNW 19.6 mph 25.3 mph N/A   Overcast
9:15 AM 1.4 °F -21.0 °F -9.4 °F 61% 30.20 in 1.0 mi WNW 21.9 mph - N/A   Overcast
9:35 AM 1.4 °F -19.4 °F -9.4 °F 61% 30.20 in 1.0 mi WNW 18.4 mph 26.5 mph N/A   Overcast
9:55 AM 1.4 °F -21.4 °F -7.6 °F 66% 30.20 in 1.8 mi WNW 23.0 mph - N/A   Overcast
10:15 AM 1.4 °F -21.4 °F -7.6 °F 66% 30.18 in 1.0 mi WNW 23.0 mph - N/A   Overcast
10:35 AM 3.2 °F -17.6 °F -7.6 °F 61% 30.19 in 1.8 mi WNW 19.6 mph 26.5 mph N/A   Overcast
10:55 AM 3.2 °F -18.1 °F -7.6 °F 61% 30.18 in 5.0 mi WNW 20.7 mph 24.2 mph N/A   Overcast
11:15 AM 3.2 °F -19.0 °F -7.6 °F 61% 30.18 in 9.0 mi WNW 23.0 mph 27.6 mph N/A   Overcast
11:35 AM 3.2 °F -19.9 °F -7.6 °F 61% 30.17 in 1.8 mi WNW 25.3 mph - N/A   Overcast
11:55 AM 3.2 °F -19.5 °F -5.8 °F 66% 30.17 in 2.0 mi WNW 24.2 mph - N/A   Overcast
12:15 PM 5.0 °F -17.9 °F -5.8 °F 61% 30.16 in 2.5 mi WNW 26.5 mph 29.9 mph N/A   Overcast
12:35 PM 5.0 °F -16.7 °F -5.8 °F 61% 30.15 in 2.5 mi WNW 23.0 mph - N/A   Overcast
12:55 PM 5.0 °F -17.5 °F -5.8 °F 61% 30.15 in 3.0 mi WNW 25.3 mph 32.2 mph N/A   Overcast
1:15 PM 5.0 °F -17.9 °F -5.8 °F 61% 30.14 in 3.0 mi WNW 26.5 mph - N/A   Overcast
1:35 PM 6.8 °F -13.4 °F -7.6 °F 52% 30.13 in 8.0 mi West 20.7 mph 31.1 mph N/A   Mostly Cloudy
1:55 PM 6.8 °F -15.5 °F -5.8 °F 56% 30.11 in 2.5 mi WNW 26.5 mph 29.9 mph N/A   Overcast
2:15 PM 5.0 °F -18.7 °F -7.6 °F 56% 30.11 in 3.0 mi West 28.8 mph 35.7 mph N/A   Mostly Cloudy
2:35 PM 5.0 °F -17.5 °F -7.6 °F 56% 30.10 in 4.0 mi WNW 25.3 mph 32.2 mph N/A   Overcast
2:55 PM 5.0 °F -17.5 °F -7.6 °F 56% 30.09 in 5.0 mi West 25.3 mph - N/A   Scattered Clouds
3:15 PM 5.0 °F -17.5 °F -5.8 °F 61% 30.09 in 3.0 mi WNW 25.3 mph 32.2 mph N/A   Mostly Cloudy
3:35 PM 5.0 °F -16.2 °F -5.8 °F 61% 30.08 in 1.5 mi West 21.9 mph 32.2 mph N/A   Overcast
3:55 PM 5.0 °F -17.9 °F -5.8 °F 61% 30.07 in 4.0 mi West 26.5 mph 34.5 mph N/A   Overcast
4:15 PM 5.0 °F -16.7 °F -7.6 °F 56% 30.07 in 10.0 mi West 23.0 mph 27.6 mph N/A   Scattered Clouds
4:35 PM 5.0 °F -16.2 °F -7.6 °F 56% 30.06 in 9.0 mi West 21.9 mph - N/A   Mostly Cloudy
4:55 PM 3.2 °F -19.0 °F -5.8 °F 66% 30.05 in 6.0 mi West 23.0 mph - N/A   Overcast
5:15 PM 3.2 °F -19.5 °F -7.6 °F 61% 30.05 in 8.0 mi West 24.2 mph 29.9 mph N/A   Mostly Cloudy
5:35 PM 3.2 °F -17.1 °F -7.6 °F 61% 30.04 in 10.0 mi West 18.4 mph - N/A   Scattered Clouds
5:55 PM 3.2 °F -17.6 °F -7.6 °F 61% 30.04 in 10.0 mi West 19.6 mph - N/A   Clear
6:15 PM 3.2 °F -17.6 °F -9.4 °F 56% 30.03 in 10.0 mi West 19.6 mph - N/A   Clear
6:35 PM 1.4 °F -21.0 °F -9.4 °F 61% 30.02 in 10.0 mi West 21.9 mph 27.6 mph N/A   Clear
6:55 PM 1.4 °F -19.4 °F -9.4 °F 61% 30.02 in 10.0 mi West 18.4 mph - N/A   Clear
7:15 PM 1.4 °F -19.9 °F -11.2 °F 56% 30.01 in 10.0 mi West 19.6 mph - N/A   Clear
7:35 PM 1.4 °F -21.0 °F -11.2 °F 56% 30.00 in 10.0 mi West 21.9 mph - N/A   Clear
7:55 PM 1.4 °F -19.9 °F -11.2 °F 56% 29.99 in 10.0 mi West 19.6 mph - N/A   Clear
8:15 PM 1.4 °F -19.4 °F -11.2 °F 56% 29.98 in 10.0 mi West 18.4 mph - N/A   Clear
8:35 PM -0.4 °F -22.8 °F -11.2 °F 60% 29.97 in 10.0 mi West 20.7 mph - N/A   Clear
8:55 PM -0.4 °F -22.8 °F -11.2 °F 60% 29.96 in 10.0 mi West 20.7 mph - N/A   Clear
9:15 PM -0.4 °F -21.7 °F -11.2 °F 60% 29.96 in 10.0 mi WSW 18.4 mph - N/A   Clear
9:35 PM -0.4 °F -23.3 °F -13.0 °F 55% 29.95 in 10.0 mi WSW 21.9 mph 26.5 mph N/A   Clear
9:55 PM -0.4 °F -23.3 °F -11.2 °F 60% 29.95 in 10.0 mi West 21.9 mph - N/A   Clear
10:15 PM 1.4 °F -21.4 °F -11.2 °F 56% 29.94 in 10.0 mi West 23.0 mph - N/A   Clear
10:35 PM -0.4 °F -23.8 °F -11.2 °F 60% 29.94 in 10.0 mi West 23.0 mph 27.6 mph N/A   Clear
10:55 PM -0.4 °F -22.8 °F -13.0 °F 55% 29.94 in 10.0 mi West 20.7 mph 27.6 mph N/A   Clear
11:15 PM -0.4 °F -22.8 °F -13.0 °F 55% 29.93 in 10.0 mi West 20.7 mph - N/A   Clear
11:35 PM -0.4 °F -22.3 °F -13.0 °F 55% 29.93 in 10.0 mi WSW 19.6 mph - N/A   Clear
11:55 PM -0.4 °F -22.3 °F -13.0 °F 55% 29.93 in 10.0 mi West 19.6 mph - N/A   Clear